Find Starlink 31621

NORAD ID: 59465 Int'l Des: 2024-068 Owner: SPXS Country: US Constellation: starlink operational
LEOCIRCULAR

Current View

Loading 3D Globe...

About Starlink 31621

Starlink 31621 (NORAD 59465) is a starlink constellation satellite (v2 mini) launched Apr 10, 2024 by SPXS of US. It operates in LEO, CIRCULAR orbit with a mass of 730.00 kg.

About Starlink 31621

Description loading...

Upcoming Passes

Passes for default location (London). Set your location on the main map for personalized predictions.

Altitude History

Loading altitude history...

Two-Line Element Set

1 59465U 24068L 26169.72613775 .00002186 00000-0 88944-4 0 9995
2 59465 43.0019 184.0395 0001349 275.9916 84.0782 15.27581292123977
Epoch: Jun 18, 2026 • Age: 8 hours

Current Status

Altitude 486.0 km
Velocity 7.63 km/s
Sub-Earth Point 38.22°N, 11°E
Launch Date Apr 10, 2024
Age 2.1 years
Type internet

Technical Details

Classification Payload
Mass 730.00 kg
Dry Mass 700.00 kg
Total Mass 730.00 kg
Length 0.30 m
Diameter 4.10 m
Span 29.00 m
Shape Box + pan
Manufacturer SPXS
Bus Type Starlink V2M
Phase Status In Orbit
Owner/State SPXS/US

Most Searched